{"data":{"norad_id":68244,"intl_designator":"2026-054N","name":"STARLINK-36310","alt_names":[],"object_type":"PAYLOAD","status":"ACTIVE","operator":null,"country":"US","launch_date":"2026-03-17","launch_site_code":"AFETR","launch_vehicle":null,"mission":null,"orbit_class":"UNKNOWN","rcs_meters":null,"size_class":null,"mass_kg":null,"dimensions":null,"purposes":["comms"],"wikipedia_slug":null,"has_3d_model":false,"image_url":null,"decayed_at":null,"tle_current":{"epoch":"2026-09-19T20:39:33.848352Z","epoch_age_seconds":106829,"freshness":"FRESH","line1":"1 68244U 26054N   26262.86080843  .00010764  00000+0  32920-3 0  9992","line2":"2 68244  53.1560 104.7860 0000983  95.1553 264.9562 15.34405282 28862","mean_motion":15.34405282,"eccentricity":9.83e-5,"inclination_deg":53.156,"raan_deg":104.786,"arg_perigee_deg":95.1553,"mean_anomaly_deg":264.9562,"bstar":0.0003292,"rev_number":2886,"period_min":93.84743502206,"perigee_km":462.01508798263,"apogee_km":463.35999408739,"semimajor_km":6840.824541035,"source":"CELESTRAK","updated_at":"2026-09-20T09:00:43.841664Z"}}}